This is the latest recevied weather packets stored in our database for station/object N3OZD-10. If no packets are shown the sender has not sent any weather packets the latest 1 day(s).
| Time | Temp. | Humidity | Pressure | Rain* | Wind** | Luminosity | Snow |
|---|---|---|---|---|---|---|---|
| 1778032344 | 19.44° C | 59% | 1010 hPa | 0 mm | - | - | - |
| 1778032043 | 19.44° C | 58% | 1010 hPa | 0 mm | - | - | - |
| 1778031745 | 19.44° C | 57% | 1009.9 hPa | 0 mm | - | - | - |
| 1778031443 | 20° C | 57% | 1009.8 hPa | 0 mm | - | - | - |
| 1778031143 | 20° C | 57% | 1009.8 hPa | 0 mm | - | - | - |
| 1778030843 | 20° C | 56% | 1009.8 hPa | 0 mm | - | - | - |
| 1778030543 | 20° C | 55% | 1009.7 hPa | 0 mm | - | - | - |
| 1778029945 | 20.56° C | 52% | 1009.5 hPa | 0 mm | - | - | - |
| 1778029045 | 21.67° C | 47% | 1009.3 hPa | 0 mm | - | - | - |
| 1778028747 | 22.22° C | 45% | 1009.2 hPa | 0 mm | - | - | - |
| 1778028445 | 23.33° C | 41% | 1009.1 hPa | 0 mm | - | - | - |
| 1778028144 | 24.44° C | 36% | 1009.1 hPa | 0 mm | - | - | - |
| 1778027845 | 24.44° C | 28% | 1009 hPa | 0 mm | - | - | - |
| 1778027543 | 24.44° C | 27% | 1008.9 hPa | 0 mm | - | - | - |
| 1778027243 | 25° C | 26% | 1008.9 hPa | 0 mm | - | - | - |
| 1778026943 | 25° C | 26% | 1008.8 hPa | 0 mm | - | - | - |
| 1778026484 | 25° C | 25% | 1008.9 hPa | 0 mm | - | - | - |
| 1778026343 | 25° C | 25% | 1008.9 hPa | 0 mm | - | - | - |
| 1778025444 | 25.56° C | 24% | 1008.7 hPa | 0 mm | - | - | - |
| 1778023344 | 25.56° C | 24% | 1008.4 hPa | 0 mm | - | - | - |
| 1778022744 | 25.56° C | 24% | 1008.4 hPa | 0 mm | - | - | - |
| 1778021244 | 25.56° C | 25% | 1008.4 hPa | 0 mm | - | - | - |
| 1778020944 | 26.11° C | 25% | 1008.5 hPa | 0 mm | - | - | - |
| 1778020644 | 26.11° C | 26% | 1008.5 hPa | 0 mm | - | - | - |
| 1778020344 | 26.11° C | 24% | 1008.6 hPa | 0 mm | - | - | - |
* Rain latest hour (hover to see other rain measurements)
** Current wind speed in m/s (hover to see current wind gust speed)